This demonstration page uses our WeatherBlox Daily Observations layout. Learn more.

Left ArrowRight Arrow

44.89941, -97.11507

Hourly Observations for October 24, 2021

Temp ( °F °C ) Dew Point ( °F °C ) Humidity (%) Winds ( mph kmh ) Pressure ( in mb ) Visibility ( mi km ) Precip ( " mm )
12:53 am 00:53 Cloudy 43 6.1 33 0.6 68 68 E 13 20 29.91 1013 10 16 N/A
1:53 am 01:53 Cloudy 43 6.1 33 0.6 68 68 E 13 20 29.89 1012 10 16 N/A
2:53 am 02:53 Cloudy 42 5.6 33 0.6 71 71 E 6 9 29.91 1013 10 16 N/A
3:53 am 03:53 Cloudy 41 5 35 1.7 79 79 NNE 7 11 29.91 1013 10 16 N/A
4:53 am 04:53 Cloudy 41 5 33 0.6 73 73 E 8 13 29.88 1012 10 16 N/A
5:53 am 05:53 Cloudy 41 5 33 0.6 73 73 ESE 14 22 29.89 1012 10 16 N/A
6:53 am 06:53 Cloudy 41 5 33 0.6 73 73 SE 10 17 29.91 1013 10 16 N/A
7:53 am 07:53 Cloudy 41 5 33 0.6 73 73 E 7 11 29.89 1012 10 16 N/A
8:53 am 08:53 Cloudy 41 5 33 0.6 73 73 E 13 20 29.89 1012 10 16 N/A
9:53 am 09:53 Cloudy 42 5.6 34 1.1 73 73 E 12 19 29.92 1013 10 16 N/A
10:53 am 10:53 Cloudy 41 5 33 0.6 73 73 ENE 8 13 29.94 1014 10 16 N/A
11:53 am 11:53 Cloudy 41 5 34 1.1 76 76 ENE 9 15 29.94 1014 10 16 N/A
12:53 pm 12:53 Cloudy 42 5.6 35 1.7 76 76 ENE 14 22 29.94 1014 10 16 N/A
1:53 pm 13:53 Cloudy 43 6.1 35 1.7 74 74 NE 15 24 29.93 1014 10 16 0.00 0.00
2:53 pm 14:53 Cloudy 43 6.1 34 1.1 71 71 ENE 15 24 29.92 1013 10 16 N/A
3:53 pm 15:53 Cloudy with Light Rain 43 6.1 34 1.1 71 71 E 14 22 29.90 1013 10 16 0.00 0.00
4:53 pm 16:53 Cloudy with Light Rain 41 5 36 2.2 82 82 ENE 9 15 29.93 1014 10 16 0.03 0.76
5:53 pm 17:53 Cloudy 42 5.6 35 1.7 76 76 ENE 9 15 29.96 1015 10 16 0.01 0.25
6:53 pm 18:53 Cloudy 41 5 35 1.7 79 79 ENE 7 11 29.99 1016 10 16 N/A
7:53 pm 19:53 Cloudy 41 5 35 1.7 79 79 ENE 7 11 30.01 1016 10 16 N/A
8:53 pm 20:53 Cloudy 41 5 34 1.1 76 76 ENE 7 11 30.03 1017 10 16 N/A
9:53 pm 21:53 Cloudy with Light Rain 39 3.9 35 1.7 86 86 ENE 8 13 30.03 1017 10 16 0.04 1.02
10:53 pm 22:53 Cloudy 39 3.9 36 2.2 89 89 N 5 7 30.06 1018 10 16 0.00 0.00
11:53 pm 23:53 Cloudy 39 3.9 37 2.8 93 93 N 3 6 30.08 1019 10 16 N/A

Powered by AerisWeather